Location: Aiyede
(8.4833°N, 4.4500°E)
Time: 02:09:48
(UTC+00:00)

N. Korean satellite - Pass Details

Date: 04 December 2020
Orbit: 452 x 502 km, 97.2° (Epoch: 22 January)

Event Time Altitude Azimuth Distance (km) Brightness Sun altitude
Rises 04:32:02 0° 22° (NNE) 2,579 10.3 -17.1°
Reaches altitude 10° 04:34:12 10° 30° (NNE) 1,701 9.4 -16.6°
Maximum altitude 04:37:40 40° 100° (E) 748 8.1 -15.8°
Drops below altitude 10° 04:41:08 10° 171° (S) 1,705 9.7 -15.0°
Sets 04:43:17 0° 178° (S) 2,587 10.6 -14.5°
